Wind_Speed
10 11 11 11 10 10 10 11 11 11 12 12 13 13 12 13 13 13 12 12 12 11 12 12 12 12 12 12 12 13 13 13 13 14 14 14 14 14 14 14 14 14 13 13
9 10 10 11 11 11 11 11 11 12 12 12 12 12 13 14 14 14 13 13 13 12 12 13 13 13 13 13 13 13 14 14 14 14 15 15 15 16 15 15 15 15 15 14
10 10 10 10 11 11 11 11 11 12 12 12 12 12 13 14 14 14 13 13 13 12 12 12 13 13 14 14 14 14 15 14 14 15 15 15 15 16 16 17 16 16 16 15
10 10 9 10 10 10 10 11 11 12 12 13 13 13 14 14 14 14 13 13 13 12 12 13 13 14 14 14 15 15 16 16 16 16 16 17 17 17 17 18 18 18 17 16
10 10 10 10 9 10 10 10 11 12 12 13 13 14 14 15 15 14 14 13 13 13 13 13 14 14 15 15 15 16 16 17 17 18 18 18 18 18 18 18 19 18 18 18
9 9 9 9 9 9 10 10 11 11 12 14 14 15 14 15 15 14 14 14 14 14 14 15 15 15 16 16 16 16 16 17 17 17 18 18 18 18 18 18 18 18 18 18
9 9 9 9 9 9 10 10 10 11 12 14 14 15 15 15 15 15 15 15 16 15 15 16 16 16 17 18 17 18 17 17 17 17 18 19 19 19 19 19 18 19 18 18
9 9 9 9 10 10 10 10 10 12 13 13 14 14 14 14 14 15 15 16 16 17 17 17 17 18 18 18 19 19 19 19 18 18 18 19 19 19 19 20 20 19 19 19
9 9 9 9 9 10 10 10 10 12 13 13 14 14 13 13 14 15 16 17 17 18 18 18 18 18 18 19 19 19 19 19 19 19 19 19 19 20 20 20 20 20 20 20
10 10 10 9 10 10 10 10 10 11 13 13 14 14 14 14 14 15 16 17 18 18 18 18 18 19 19 19 19 19 19 19 19 19 20 20 20 20 21 21 20 20 20 20
11 11 11 10 10 11 11 10 11 13 14 14 15 15 15 14 14 14 16 16 17 17 18 18 19 19 19 19 19 20 20 20 20 20 21 21 21 21 21 22 22 21 21 21
12 12 12 12 12 12 12 11 12 13 15 16 16 16 15 15 15 15 16 16 16 17 18 19 19 20 20 19 20 20 21 21 21 22 22 22 22 22 22 22 22 21 21 22
13 13 13 13 13 14 13 13 14 15 16 17 17 17 16 16 16 16 16 16 16 17 18 19 20 20 20 20 20 20 21 21 21 22 23 23 23 23 23 23 22 22 22 22
13 14 14 14 15 15 15 15 15 16 17 17 17 18 17 17 17 16 16 16 16 17 18 19 20 20 20 20 20 20 21 22 22 23 23 24 24 24 24 24 24 25 24 23
15 15 15 16 17 16 16 16 17 18 18 18 17 18 18 18 17 17 17 18 17 18 19 20 20 20 20 20 20 21 22 22 22 23 23 24 24 25 25 25 25 25 26 25
16 16 16 16 17 18 18 18 18 19 19 19 18 18 19 19 19 18 19 20 19 19 20 20 21 21 21 21 21 22 22 22 23 23 23 24 25 25 26 26 26 26 26 26
16 16 17 17 18 20 20 19 19 20 20 20 19 18 19 20 20 20 19 19 20 20 21 21 22 22 22 22 22 23 23 23 23 23 24 25 25 26 26 27 27 27 27 27
17 17 18 18 19 20 19 19 19 19 19 20 20 20 19 19 20 20 21 21 20 21 22 22 22 22 23 23 24 24 25 25 25 24 24 24 25 27 27 28 28 28 29 29
18 19 19 20 20 19 19 19 19 20 20 20 20 20 20 20 20 21 22 22 22 22 22 22 23 23 24 24 24 24 24 24 25 26 25 26 26 27 28 28 27 28 28 29
19 19 20 20 21 20 19 19 20 20 20 20 20 21 21 21 21 21 22 22 23 23 23 23 24 24 24 24 24 25 25 25 26 27 27 27 27 27 27 27 27 28 28 29
20 20 20 21 21 21 20 20 21 21 21 21 21 21 22 22 22 22 22 22 22 23 23 24 25 25 25 25 25 26 26 27 27 27 27 27 28 28 28 27 27 28 28 28
21 21 21 22 22 21 21 21 22 21 21 21 22 22 22 22 22 22 23 23 23 23 23 24 25 26 26 26 27 27 27 28 28 28 28 28 28 28 28 28 27 27 28 28
22 22 22 23 23 23 22 22 23 22 22 22 23 23 23 23 24 24 24 23 23 24 24 25 25 25 26 27 27 27 27 28 28 28 29 29 29 29 29 29 28 28 28 29
23 23 24 23 23 24 24 23 24 24 24 24 24 24 25 24 24 25 25 25 25 25 25 26 26 25 26 27 28 28 28 28 28 29 29 29 29 29 28 28 29 30 30 30
24 25 26 26 25 26 25 25 25 26 26 26 26 26 26 26 26 26 26 27 27 27 27 27 27 27 27 27 28 28 28 29 29 29 30 30 30 30 30 30 30 30 31 31
25 27 27 27 27 27 27 27 27 27 28 28 28 27 27 27 27 27 27 28 28 28 27 28 28 28 28 28 29 29 30 30 30 30 30 30 30 30 31 31 31 31 31 31
Wind_Direction
245 245 244 247 250 252 251 251 251 248 243 241 241 244 244 246 249 250 253 256 255 255 258 259 258 259 261 264 265 266 268 267 266 265 263 260 260 261 262 260 258 258 259 261
243 245 246 248 249 251 252 250 248 248 247 245 244 245 245 247 249 250 254 255 254 253 257 261 262 261 263 265 269 269 268 269 269 265 260 260 260 261 260 260 259 259 260 261
243 245 246 247 248 251 251 249 247 247 247 247 246 244 244 247 251 252 254 254 253 255 257 260 263 264 263 266 269 271 271 271 269 266 262 261 262 261 260 260 260 260 261 260
244 245 248 247 246 250 252 252 250 249 247 247 246 248 246 248 250 251 250 249 252 255 259 263 264 265 265 266 268 270 271 272 272 270 268 268 266 264 262 261 261 260 259 260
246 249 250 250 248 250 251 252 252 251 251 250 247 251 249 248 250 250 249 248 252 257 261 265 266 266 267 267 270 271 272 274 275 273 270 270 270 268 266 265 264 262 261 260
250 255 253 252 251 252 253 254 254 254 254 252 249 252 251 246 247 250 248 249 253 258 264 267 268 269 270 270 271 272 275 275 277 275 274 272 271 270 265 266 265 262 261 259
249 252 253 251 252 252 253 254 255 256 257 257 255 255 253 250 249 250 251 253 256 260 265 269 270 270 273 273 272 273 274 276 278 279 276 273 271 270 266 265 266 262 259 259
251 253 253 251 251 253 253 255 253 257 259 262 259 257 256 255 252 253 255 256 258 261 264 268 271 274 275 275 274 273 274 275 277 278 277 274 271 271 268 267 265 263 260 259
254 259 258 255 254 254 251 253 260 260 261 261 260 260 262 258 257 258 259 261 262 264 265 268 272 275 277 276 275 274 273 274 276 276 275 273 273 271 269 267 265 264 263 259
258 260 261 261 258 254 252 255 261 260 263 263 263 264 269 265 261 261 261 262 265 266 268 270 273 274 275 276 275 273 273 274 274 274 275 274 273 271 267 267 266 263 262 262
257 259 260 259 257 257 258 262 263 263 264 266 266 267 270 269 263 261 261 262 263 265 266 270 273 273 273 275 275 275 273 273 273 273 273 273 271 270 269 267 266 264 264 265
258 261 262 261 260 262 265 268 269 269 268 268 267 266 269 268 264 263 264 264 264 266 267 269 271 272 273 275 275 275 275 273 273 272 272 272 270 270 269 268 266 265 266 265
258 261 265 265 265 266 268 269 270 271 271 270 267 265 266 267 266 266 265 267 267 269 269 270 272 274 274 274 275 275 275 273 272 272 272 272 270 268 268 267 266 266 267 267
260 261 264 268 271 271 270 269 270 270 272 273 269 266 265 267 265 268 269 270 271 271 272 274 276 276 276 275 276 276 275 274 274 273 273 272 270 268 268 268 267 267 269 267
264 266 265 267 268 271 273 275 272 271 271 272 273 270 268 266 266 266 267 269 272 272 273 275 276 276 276 277 278 279 277 275 275 274 274 273 271 269 267 268 268 269 268 267
266 268 267 268 270 273 275 275 271 270 272 273 274 274 270 267 266 269 269 269 270 272 274 274 276 277 277 277 278 280 278 276 275 274 273 273 272 270 270 269 269 269 268 267
268 269 269 270 272 274 275 273 272 271 271 272 273 274 272 270 269 270 268 267 270 271 273 273 274 275 277 277 278 278 279 278 277 275 274 274 274 273 272 271 270 268 267 267
268 269 270 271 272 273 276 274 272 272 272 272 271 273 275 275 272 270 268 266 269 272 273 274 276 277 278 279 279 279 279 278 277 276 276 276 276 275 274 275 272 268 265 265
267 269 271 273 274 275 274 274 274 274 271 271 272 274 275 276 276 274 274 272 270 271 273 274 276 278 279 280 280 280 279 278 277 277 277 278 278 277 276 275 273 270 267 265
267 268 270 273 274 275 276 276 277 276 274 272 272 273 274 275 276 276 276 275 272 272 273 275 277 278 280 281 282 281 280 279 279 279 278 278 277 277 277 275 273 270 267 265
266 269 271 274 275 275 276 277 278 276 277 275 275 275 274 275 275 276 277 277 276 275 275 276 278 279 280 281 283 283 282 281 281 281 279 279 279 278 277 276 275 272 268 266
268 269 271 274 275 275 277 276 276 276 278 276 275 276 276 275 276 276 276 278 278 278 278 279 280 280 280 281 282 283 283 282 282 281 280 279 279 279 277 276 275 273 270 269
267 269 271 273 274 274 276 277 275 276 278 278 278 279 279 278 278 278 278 279 281 282 282 282 281 280 280 282 282 282 283 282 283 283 282 281 280 279 278 276 274 274 272 269
268 268 270 272 273 273 275 277 276 275 277 278 279 280 279 279 279 279 279 280 283 284 285 284 284 284 283 282 282 283 283 283 283 283 283 282 281 280 279 278 276 275 274 272
268 269 270 271 272 272 275 276 276 276 276 277 278 278 279 279 280 279 280 281 282 284 285 285 285 285 285 284 285 285 285 285 284 284 283 281 280 279 278 276 275 274 273 272
266 268 270 271 272 272 273 275 276 276 276 277 277 277 278 279 279 280 279 280 280 281 282 283 284 284 285 285 285 286 285 284 284 284 284 282 280 278 276 275 274 273 272 271
Height
5824 5825 5826 5827 5828 5829 5829 5829 5831 5832 5832 5833 5834 5836 5837 5838 5838 5839 5839 5840 5840 5841 5841 5841 5841 5842 5842 5842 5842 5842 5841 5841 5841 5840 5840 5840 5840 5840 5840 5840 5840 5840 5840 5839
5821 5822 5823 5823 5824 5825 5826 5826 5827 5828 5829 5830 5831 5833 5834 5834 5835 5836 5836 5837 5837 5838 5838 5838 5838 5838 5838 5838 5838 5838 5838 5838 5837 5837 5837 5836 5836 5836 5836 5836 5836 5836 5836 5836
5818 5820 5819 5820 5821 5822 5822 5823 5824 5825 5826 5827 5828 5830 5830 5831 5831 5832 5833 5833 5834 5835 5835 5835 5835 5835 5835 5835 5835 5835 5834 5834 5834 5833 5833 5833 5832 5832 5832 5832 5832 5832 5832 5832
5815 5816 5816 5817 5817 5818 5819 5820 5821 5822 5823 5824 5826 5826 5827 5827 5828 5829 5830 5830 5831 5831 5831 5831 5831 5832 5832 5832 5831 5831 5831 5830 5830 5829 5829 5829 5829 5829 5828 5828 5828 5828 5828 5828
5812 5813 5813 5814 5815 5815 5816 5817 5818 5819 5819 5821 5822 5823 5825 5824 5825 5826 5826 5827 5827 5827 5828 5828 5828 5828 5828 5828 5828 5827 5827 5826 5826 5825 5825 5824 5824 5824 5824 5824 5824 5823 5823 5823
5809 5810 5810 5811 5812 5812 5813 5814 5815 5815 5816 5817 5818 5819 5820 5821 5822 5822 5823 5823 5823 5824 5824 5824 5824 5824 5824 5824 5823 5823 5822 5822 5821 5821 5820 5820 5819 5819 5819 5819 5819 5818 5818 5818
5806 5807 5807 5808 5809 5809 5810 5812 5813 5812 5813 5814 5814 5815 5816 5817 5818 5818 5819 5819 5819 5820 5820 5820 5820 5820 5820 5819 5819 5818 5818 5817 5817 5816 5815 5814 5814 5814 5814 5813 5813 5813 5813 5813
5804 5805 5805 5805 5806 5806 5807 5809 5810 5811 5811 5811 5810 5811 5813 5813 5814 5814 5814 5815 5815 5815 5816 5816 5816 5816 5815 5815 5814 5813 5813 5812 5812 5811 5810 5809 5809 5809 5808 5808 5808 5808 5808 5808
5801 5802 5802 5802 5803 5804 5804 5805 5806 5807 5807 5807 5807 5808 5808 5809 5809 5810 5810 5810 5810 5811 5811 5811 5811 5811 5810 5810 5809 5808 5807 5807 5806 5806 5805 5804 5804 5803 5803 5802 5802 5802 5802 5802
5798 5799 5799 5799 5800 5800 5801 5801 5802 5802 5802 5803 5803 5804 5805 5804 5805 5805 5805 5806 5806 5806 5806 5806 5806 5806 5805 5804 5803 5802 5802 5801 5801 5800 5799 5799 5798 5797 5797 5797 5796 5796 5797 5797
5794 5796 5796 5796 5796 5796 5797 5798 5798 5798 5799 5799 5800 5802 5800 5800 5800 5801 5801 5801 5801 5801 5801 5801 5801 5800 5800 5799 5798 5797 5796 5796 5795 5794 5793 5793 5792 5792 5791 5791 5791 5791 5791 5791
5791 5792 5792 5793 5793 5793 5793 5794 5794 5795 5794 5794 5795 5798 5795 5795 5795 5796 5796 5796 5796 5796 5796 5796 5795 5795 5794 5793 5792 5791 5790 5790 5789 5788 5788 5787 5786 5786 5785 5785 5785 5785 5785 5784
5787 5788 5788 5789 5790 5790 5789 5789 5789 5789 5789 5789 5790 5793 5790 5790 5790 5791 5791 5791 5791 5791 5790 5790 5790 5789 5788 5787 5787 5786 5785 5784 5783 5782 5781 5781 5780 5780 5779 5779 5779 5778 5778 5778
5783 5784 5785 5785 5784 5784 5784 5784 5784 5784 5784 5784 5785 5785 5785 5785 5785 5785 5785 5785 5785 5785 5785 5784 5784 5783 5782 5781 5780 5780 5779 5778 5777 5776 5775 5775 5774 5774 5773 5773 5772 5772 5771 5771
5778 5779 5779 5779 5779 5779 5779 5779 5779 5779 5779 5779 5779 5779 5780 5779 5779 5779 5779 5779 5779 5779 5779 5778 5778 5777 5776 5775 5774 5773 5772 5771 5770 5769 5768 5768 5767 5767 5766 5766 5765 5765 5765 5764
5773 5774 5774 5774 5774 5773 5773 5773 5773 5773 5773 5773 5773 5774 5774 5773 5773 5773 5773 5773 5773 5773 5772 5772 5771 5770 5769 5768 5767 5766 5765 5764 5763 5762 5761 5761 5760 5759 5759 5758 5758 5758 5757 5757
5768 5769 5769 5769 5768 5768 5768 5768 5767 5767 5767 5767 5767 5769 5767 5767 5767 5767 5767 5766 5766 5766 5766 5765 5764 5764 5763 5762 5761 5759 5758 5757 5756 5755 5754 5753 5752 5751 5751 5750 5750 5749 5749 5749
5763 5763 5763 5763 5763 5762 5764 5762 5761 5761 5761 5761 5761 5761 5761 5761 5761 5760 5760 5759 5759 5759 5759 5758 5757 5757 5756 5755 5753 5752 5751 5750 5749 5748 5747 5746 5745 5744 5743 5742 5741 5741 5740 5740
5757 5757 5757 5757 5756 5756 5757 5756 5755 5755 5755 5755 5755 5755 5754 5754 5754 5754 5754 5753 5752 5752 5751 5751 5750 5749 5748 5747 5746 5745 5743 5742 5741 5740 5739 5738 5737 5736 5735 5734 5733 5732 5731 5731
5752 5752 5752 5751 5750 5750 5752 5750 5749 5750 5749 5749 5749 5748 5748 5748 5748 5748 5747 5746 5745 5745 5744 5743 5743 5742 5741 5740 5738 5737 5736 5734 5733 5732 5731 5729 5728 5727 5726 5725 5724 5723 5723 5722
5746 5745 5745 5744 5743 5744 5745 5743 5743 5744 5744 5743 5742 5742 5742 5741 5741 5741 5740 5739 5738 5737 5737 5736 5735 5734 5733 5732 5731 5729 5728 5726 5725 5723 5722 5720 5719 5718 5717 5716 5715 5714 5714 5714
5739 5739 5739 5738 5737 5740 5737 5737 5737 5737 5736 5735 5735 5735 5734 5734 5734 5733 5733 5732 5731 5730 5729 5728 5727 5726 5725 5724 5723 5721 5720 5718 5716 5714 5713 5712 5710 5709 5708 5707 5706 5705 5705 5705
5732 5733 5732 5732 5733 5732 5730 5730 5729 5729 5728 5728 5728 5728 5727 5727 5726 5726 5725 5724 5724 5723 5721 5720 5719 5718 5717 5715 5714 5713 5711 5709 5707 5706 5704 5702 5701 5700 5699 5698 5697 5696 5696 5696
5725 5725 5724 5724 5724 5724 5723 5722 5722 5721 5721 5720 5720 5720 5719 5719 5718 5718 5717 5716 5715 5714 5713 5712 5711 5710 5708 5707 5705 5704 5702 5700 5698 5697 5695 5693 5692 5691 5690 5689 5688 5687 5686 5686
5718 5717 5716 5716 5716 5715 5715 5715 5714 5713 5713 5712 5712 5712 5711 5710 5710 5709 5708 5708 5707 5706 5705 5703 5702 5701 5699 5698 5696 5694 5693 5691 5689 5687 5685 5684 5682 5681 5680 5679 5678 5677 5677 5676
5709 5709 5708 5708 5708 5708 5707 5706 5706 5705 5704 5704 5704 5703 5703 5702 5701 5700 5700 5699 5698 5697 5696 5694 5693 5691 5690 5688 5687 5685 5683 5681 5679 5677 5675 5674 5672 5671 5670 5669 5668 5667 5667 5666